When you browse on this site, cookies collect data to enhance your experience and personalize the content and advertising you see.
Visit our Privacy Policy to learn more. By continuing to use the site, you agree to this use of cookies and data.
  • Em Portugal
  • Lista de países
  • Para 7 dias
  • Temperatura da água
  • Mapas de satélite
  • Mapa do tempo
  • Widgets de tempo
  • user-avatar
    Iniciar Sessão

    Previsão horária em Lipovec

    Hoje, 22 Novembro, Quinta-feira

    Tempo Temperatura Precipitação Vento Pressão Humidade
    00:00 -5°C° 0 mm 2 m/s 746 mmHg 89%
    01:00 -6°C° 0 mm 2 m/s 746 mmHg 89%
    02:00 -4°C° 0 mm 1 m/s 746 mmHg 88%
    03:00 -4°C° 0 mm 1 m/s 746 mmHg 89%
    04:00 -4°C° 0 mm 1 m/s 746 mmHg 89%
    05:00 -4°C° 0 mm 1 m/s 746 mmHg 90%
    06:00 -6°C° 0 mm 1 m/s 746 mmHg 91%
    07:00 -6°C° 0 mm 1 m/s 746 mmHg 92%
    08:00 -6°C° 0 mm 1 m/s 746 mmHg 92%
    09:00 -6°C° 0 mm 2 m/s 746 mmHg 89%
    10:00 -5°C° 0 mm 2 m/s 746 mmHg 85%
    11:00 -4°C° 0 mm 2 m/s 746 mmHg 82%
    12:00 -3°C° 0 mm 2 m/s 746 mmHg 80%
    13:00 -3°C° 0 mm 2 m/s 746 mmHg 79%
    14:00 -2°C° 0 mm 2 m/s 746 mmHg 77%
    15:00 -3°C° 0 mm 2 m/s 746 mmHg 80%
    16:00 -4°C° 0 mm 2 m/s 746 mmHg 83%
    17:00 -5°C° 0 mm 2 m/s 745 mmHg 86%
    18:00 -5°C° 0 mm 2 m/s 745 mmHg 87%
    19:00 -5°C° 0 mm 2 m/s 745 mmHg 87%
    20:00 -6°C° 0 mm 2 m/s 745 mmHg 87%
    21:00 -6°C° 0 mm 2 m/s 745 mmHg 87%
    22:00 -6°C° 0 mm 2 m/s 745 mmHg 87%
    23:00 -6°C° 0 mm 2 m/s 746 mmHg 87%

    Amanhã, 23 Novembro, Sexta-feira

    Tempo Temperatura Precipitação Vento Pressão Humidade
    00:00 -6°C° 0 mm 2 m/s 746 mmHg 87%
    01:00 -6°C° 0 mm 2 m/s 746 mmHg 88%
    02:00 -7°C° 0 mm 3 m/s 746 mmHg 88%
    03:00 -8°C° 0 mm 3 m/s 746 mmHg 88%
    04:00 -8°C° 0 mm 3 m/s 746 mmHg 88%
    05:00 -8°C° 0 mm 3 m/s 746 mmHg 88%
    06:00 -8°C° 0 mm 3 m/s 746 mmHg 88%
    07:00 -7°C° 0 mm 2 m/s 746 mmHg 89%
    08:00 -7°C° 0 mm 2 m/s 747 mmHg 89%
    09:00 -6°C° 0 mm 2 m/s 747 mmHg 85%
    10:00 -5°C° 0 mm 2 m/s 747 mmHg 82%
    11:00 -4°C° 0 mm 2 m/s 748 mmHg 78%
    12:00 -3°C° 0 mm 2 m/s 748 mmHg 77%
    13:00 -1°C° 0 mm 1 m/s 748 mmHg 76%
    14:00 0°C° 0 mm 1 m/s 748 mmHg 75%
    15:00 -1°C° 0 mm 1 m/s 748 mmHg 78%
    16:00 -2°C° 0 mm 1 m/s 748 mmHg 82%
    17:00 -4°C° 0 mm 1 m/s 748 mmHg 86%
    18:00 -4°C° 0 mm 1 m/s 748 mmHg 87%
    19:00 -4°C° 0 mm 1 m/s 748 mmHg 88%
    20:00 -6°C° 0 mm 1 m/s 748 mmHg 90%
    21:00 -7°C° 0 mm 2 m/s 748 mmHg 91%
    22:00 -7°C° 0 mm 2 m/s 748 mmHg 92%
    23:00 -7°C° 0 mm 2 m/s 748 mmHg 92%

    Depois de amanhã, 24 Novembro, Sábado

    Tempo Temperatura Precipitação Vento Pressão Humidade
    00:00 -8°C° 0 mm 2 m/s 748 mmHg 93%
    01:00 -8°C° 0 mm 2 m/s 748 mmHg 93%
    02:00 -9°C° 0 mm 3 m/s 747 mmHg 93%
    03:00 -9°C° 0 mm 3 m/s 747 mmHg 93%
    04:00 -9°C° 0 mm 3 m/s 746 mmHg 92%
    05:00 -10°C° 0 mm 3 m/s 746 mmHg 91%
    06:00 -9°C° 0 mm 3 m/s 746 mmHg 90%
    07:00 -9°C° 0 mm 3 m/s 745 mmHg 88%
    08:00 -9°C° 0 mm 3 m/s 745 mmHg 86%
    09:00 -8°C° 0 mm 3 m/s 745 mmHg 82%
    10:00 -8°C° 0 mm 4 m/s 745 mmHg 77%
    11:00 -5°C° 0 mm 4 m/s 744 mmHg 73%
    12:00 -5°C° 0 mm 4 m/s 744 mmHg 73%
    13:00 -4°C° 0 mm 4 m/s 743 mmHg 74%
    14:00 -3°C° 0 mm 4 m/s 743 mmHg 74%
    15:00 -4°C° 0 mm 4 m/s 742 mmHg 78%
    16:00 -5°C° 0 mm 4 m/s 742 mmHg 83%
    17:00 -6°C° 0 mm 3 m/s 741 mmHg 87%
    18:00 -6°C° 0 mm 3 m/s 741 mmHg 88%
    19:00 -6°C° 0 mm 3 m/s 741 mmHg 89%
    20:00 -6°C° 0 mm 3 m/s 741 mmHg 89%
    21:00 -6°C° 0 mm 3 m/s 740 mmHg 89%
    22:00 -6°C° 0 mm 3 m/s 740 mmHg 89%
    23:00 -6°C° 0 mm 3 m/s 740 mmHg 90%

    25 Novembro, Domingo

    Tempo Temperatura Precipitação Vento Pressão Humidade
    00:00 -4°C° 0 mm 2 m/s 739 mmHg 90%
    01:00 -4°C° 0 mm 2 m/s 739 mmHg 90%
    02:00 -4°C° 0 mm 2 m/s 739 mmHg 90%
    03:00 -4°C° 0 mm 2 m/s 738 mmHg 91%
    04:00 -3°C° 0 mm 2 m/s 738 mmHg 91%
    05:00 -3°C° 0 mm 2 m/s 738 mmHg 91%
    06:00 -3°C° 0 mm 2 m/s 738 mmHg 91%
    07:00 -3°C° 0 mm 2 m/s 738 mmHg 92%
    08:00 -3°C° 0 mm 2 m/s 738 mmHg 92%
    09:00 -1°C° 0 mm 2 m/s 738 mmHg 92%
    10:00 +1°C° 0 mm 2 m/s 738 mmHg 92%
    11:00 +2°C° 0 mm 2 m/s 738 mmHg 92%
    12:00 +2°C° 0 mm 2 m/s 738 mmHg 93%
    13:00 +3°C° 0 mm 2 m/s 738 mmHg 94%
    14:00 +3°C° 0 mm 2 m/s 737 mmHg 95%
    15:00 +2°C° 0 mm 2 m/s 737 mmHg 95%
    16:00 +2°C° 0 mm 2 m/s 737 mmHg 95%
    17:00 +1°C° 0 mm 2 m/s 737 mmHg 95%
    18:00 +2°C° 0 mm 1 m/s 737 mmHg 96%
    19:00 +2°C° 0 mm 1 m/s 737 mmHg 96%
    20:00 +2°C° 0 mm 1 m/s 737 mmHg 96%
    21:00 +1°C° 0.1 mm 0 m/s 737 mmHg 96%
    22:00 +1°C° 0.1 mm 0 m/s 737 mmHg 96%
    23:00 +1°C° 0.1 mm 0 m/s 737 mmHg 96%

    26 Novembro, Segunda-feira

    Tempo Temperatura Precipitação Vento Pressão Humidade
    00:00 +1°C° 0.2 mm 0 m/s 737 mmHg 96%
    01:00 +1°C° 0.2 mm 0 m/s 737 mmHg 96%
    02:00 +1°C° 0.2 mm 0 m/s 737 mmHg 96%
    03:00 +2°C° 0.2 mm 1 m/s 736 mmHg 97%
    04:00 +2°C° 0.2 mm 1 m/s 736 mmHg 97%
    05:00 +2°C° 0.2 mm 1 m/s 736 mmHg 97%
    06:00 +1°C° 0.3 mm 2 m/s 736 mmHg 97%
    07:00 +1°C° 0.3 mm 2 m/s 736 mmHg 97%
    08:00 +1°C° 0.3 mm 2 m/s 736 mmHg 97%
    09:00 0°C° 0.1 mm 3 m/s 737 mmHg 97%
    10:00 0°C° 0.1 mm 3 m/s 737 mmHg 97%
    11:00 0°C° 0.1 mm 3 m/s 737 mmHg 96%
    12:00 -1°C° 0.1 mm 4 m/s 736 mmHg 96%
    13:00 -1°C° 0.1 mm 4 m/s 736 mmHg 96%
    14:00 -1°C° 0.1 mm 4 m/s 736 mmHg 95%
    15:00 -1°C° 0 mm 4 m/s 736 mmHg 95%
    16:00 -1°C° 0 mm 4 m/s 735 mmHg 95%
    17:00 -2°C° 0 mm 5 m/s 735 mmHg 94%
    18:00 -2°C° 0.2 mm 5 m/s 735 mmHg 94%
    19:00 -2°C° 0.2 mm 5 m/s 735 mmHg 94%
    20:00 -2°C° 0.2 mm 5 m/s 734 mmHg 94%
    21:00 -3°C° 0.5 mm 6 m/s 734 mmHg 94%
    22:00 -3°C° 0.5 mm 6 m/s 734 mmHg 94%
    23:00 -4°C° 0.5 mm 6 m/s 733 mmHg 94%

    27 Novembro, Terça-feira

    Tempo Temperatura Precipitação Vento Pressão Humidade
    00:00 -4°C° 0.6 mm 6 m/s 733 mmHg 94%
    01:00 -4°C° 0.6 mm 6 m/s 732 mmHg 94%
    02:00 -4°C° 0.6 mm 6 m/s 732 mmHg 94%
    03:00 -4°C° 0.6 mm 6 m/s 732 mmHg 94%
    04:00 -4°C° 0.6 mm 6 m/s 732 mmHg 94%
    05:00 -4°C° 0.6 mm 6 m/s 731 mmHg 94%
    06:00 -5°C° 0.5 mm 6 m/s 731 mmHg 94%
    07:00 -5°C° 0.5 mm 6 m/s 732 mmHg 94%
    08:00 -5°C° 0.5 mm 6 m/s 732 mmHg 94%
    09:00 -5°C° 0.4 mm 6 m/s 732 mmHg 94%
    10:00 -5°C° 0.4 mm 6 m/s 733 mmHg 93%
    11:00 -5°C° 0.4 mm 6 m/s 733 mmHg 93%
    12:00 -6°C° 0.2 mm 6 m/s 734 mmHg 93%
    13:00 -6°C° 0.2 mm 6 m/s 734 mmHg 92%
    14:00 -6°C° 0.2 mm 6 m/s 734 mmHg 91%
    15:00 -6°C° 0 mm 5 m/s 735 mmHg 90%
    16:00 -6°C° 0 mm 5 m/s 736 mmHg 90%
    17:00 -7°C° 0 mm 5 m/s 736 mmHg 89%
    18:00 -7°C° 0 mm 5 m/s 737 mmHg 89%
    19:00 -8°C° 0 mm 5 m/s 737 mmHg 90%
    20:00 -10°C° 0 mm 5 m/s 738 mmHg 90%
    21:00 -10°C° 0 mm 5 m/s 739 mmHg 91%
    22:00 -10°C° 0 mm 4 m/s 739 mmHg 92%
    23:00 -10°C° 0 mm 4 m/s 740 mmHg 93%
    Mostrar mais